Terminal Aerodrome Forecast
Issued by NWS Norman, OK

Home | Current Version | Previous Version | Text Only | Print | Product List | Glossary On
Versions: 1 2 3 4 5 6 7 8 9 10 11 12 13
000
FTUS44 KOUN 310520
TAFSPS
TAF
KSPS 310520Z 3106/0106 15010KT P6SM SCT250
     FM311500 20014G20KT P6SM SCT070
     FM010100 16011KT P6SM SCT250=

USA.gov is the U.S. government's official web portal to all federal, state and local government web resources and services.